Regional Weather Roundup
Issued by NWS

Home | Current Version | Previous Version | Text Only | Print | Product List | Glossary Off
Versions: 1 2 3 4 5 6 7 8 9 10 11 12 13 14 15 16 17 18 19 20 21 22 23 24 25 26 27 28 29 30 31 32 33 34 35 36 37 38 39 40 41 42 43 44 45 46 47 48 49 50

000
ASUS45 KPSR 291400
RWRAZ

ARIZONA REGIONAL HOURLY WEATHER ROUNDUP
NATIONAL WEATHER SERVICE PHOENIX AZ
700 AM MST SUN MAR 29 2015

NOTE: FAIR INDICATES FEW OR NO CLOUDS BELOW 12,000 FEET WITH NO
SIGNIFICANT WEATHER AND/OR OBSTRUCTIONS TO VISIBILITY.

AZZ001>003-036-291500-
NORTHWEST ARIZONA

CITY           SKY/WX    TMP DP  RH WIND       PRES   REMARKS
KINGMAN        CLEAR     53  24  32 S8        30.13R
$$

AZZ004>008-015-016-018-291500-
NORTH CENTRAL ARIZONA

CITY           SKY/WX    TMP DP  RH WIND       PRES   REMARKS
GRAND CANYON   PTCLDY    29  21  72 CALM      30.31R
WILLIAMS       CLEAR     36  21  55 S9        30.37R WCI  29
PRESCOTT       PTCLDY    43  23  45 CALM      30.23R
FLAGSTAFF      NOT AVBL
PAYSON         CLEAR     50  23  34 CALM      30.25R
PAGE           CLEAR     59  22  24 CALM      30.20R
$$

AZZ009>014-017-291500-
NORTHEAST ARIZONA

CITY           SKY/WX    TMP DP  RH WIND       PRES   REMARKS
WINSLOW        NOT AVBL
SAINT JOHNS    CLEAR     46  11  24 S6        30.28R
WINDOW ROCK    CLEAR     31  16  54 CALM      30.32R
SHOW LOW       CLEAR     39  14  35 CALM      30.33R
$$

AZZ023-291500-
GREATER PHOENIX AREA

CITY           SKY/WX    TMP DP  RH WIND       PRES   REMARKS
PHOENIX        MOCLDY    66  28  24 SE7       30.01R
GLENDALE       MOCLDY    61  37  41 CALM      30.03
DEER VALLEY    PTCLDY    63  30  28 N8        30.02R
SCOTTSDALE     PTCLDY    64  37  36 NE3       30.04R
MESA-GATEWAY   PTCLDY    55  25  30 SE5       30.05R
CHANDLER       PTCLDY    59  28  31 NE8       30.03R
$$

AZZ027-028-291500-
SOUTHWEST MARICOPA COUNTY AND PINAL COUNTY

CITY           SKY/WX    TMP DP  RH WIND       PRES   REMARKS
CASA GRANDE    PTCLDY    61  30  31 CALM      30.03R
$$

AZZ503-504-507>509-291500-
SOUTHEAST ARIZONA

CITY           SKY/WX    TMP DP  RH WIND       PRES   REMARKS
TUCSON         PTCLDY    60  26  27 SE10      30.12R
RYAN FIELD       N/A     57  32  38 CALM      30.11R
NOGALES        PTCLDY    51  27  39 S3        30.18R
SAFFORD        CLEAR     50  19  29 CALM      30.14R
$$

AZZ020-021-025-026-031-291500-
SOUTHWEST ARIZONA

CITY           SKY/WX    TMP DP  RH WIND       PRES   REMARKS
YUMA           NOT AVBL
$$

CAZ031-033-041-043-047-048-061-291500-
SOUTHERN CALIFORNIA

CITY           SKY/WX    TMP DP  RH WIND       PRES   REMARKS
DOWNTOWN L.A.  CLOUDY    58  57  97 SE3       30.05R FOG
L.A. AIRPORT   FOG       56  56 100 CALM      30.06R VSB 3/4
SAN DIEGO      CLOUDY    63  56  78 NE6       30.07R
BURBANK        CLEAR     58  45  62 CALM      30.05R
ONTARIO        PTCLDY    56  44  64 CALM      30.06R
RIVERSIDE      CLEAR     56  42  59 CALM      30.07R
PALM SPRINGS   PTCLDY    69  39  33 W3        29.97R
EL CENTRO NAS  MOCLDY    65  30  27 S3        29.93R
IMPERIAL       MOCLDY    64  36  35 SW5       29.93R
BLYTHE         MOCLDY    67  31  26 W5        29.97R
$$

NVZ020-UTZ003-291500-
SOUTHERN NEVADA-UTAH

CITY           SKY/WX    TMP DP  RH WIND       PRES   REMARKS
LAS VEGAS      NOT AVBL
SALT LAKE CITY CLEAR     39  26  59 S6        30.31R WCI  35
$$

NMZ009-TXZ055-291500-
NEW MEXICO-WEST TEXAS

CITY           SKY/WX    TMP DP  RH WIND       PRES   REMARKS
ALBUQUERQUE    MOSUNNY   51  16  24 SE3       30.25R
EL PASO        SUNNY     54  15  21 CALM      30.16R
$$


........................KEY........................
SKY/WX - SKY CONDITION/WEATHER
TMP    - TEMPERATURE IN FAHRENHEIT
DP     - DEW POINT IN FAHRENHEIT
RH     - RELATIVE HUMIDITY IN PERCENT
WIND   - DIRECTION AND SPEED IN MILES PER HOUR (MPH)
VRB    - VARIABLE WIND DIRECTION
PRES   - MEAN SEA LEVEL PRESSURE IN INCHES OF MERCURY
         F - FALLING PRESSURE   R - RISING PRESSURE
         S - STEADY PRESSURE
VSB    - VISIBILITY IN MILES
HX     - HEAT INDEX IN FAHRENHEIT
WCI    - WIND CHILL INDEX IN FAHRENHEIT
TC     - TEMPERATURE IN CELSIUS WHICH IS ALSO KNOWN AS
         TEMPERATURE IN CENTIGRADE
AFB    - AIR FORCE BASE
         LUKE AFB IS LUKE AIR FORCE BASE
         DAVIS-MONTHAN IS DAVIS-MONTHAN AIR FORCE BASE
NAS    - NAVAL AIR STATION
         EL CENTRO NAS IS EL CENTRO NAVAL AIR STATION
N/A    - NOT AVAILABLE



USA.gov is the U.S. government's official web portal to all federal, state and local government web resources and services.